Stations météo

réclame
Mon MeteoGroup
Ulm-Maehringen, Allemagne (10840): Température de l'air & dewpoint: 18.04.2018 10:00:00 - 24.04.2018 10:00:00 (CEST)Ulm-Maehringen, Allemagne (10840): Température de l'air 5cm & Température de l'air -5cm: 18.04.2018 10:00:00 - 24.04.2018 10:00:00 (CEST)Ulm-Maehringen, Allemagne (10840): Température de l'air -20cm & Température de l'air -100cm: 18.04.2018 10:00:00 - 24.04.2018 10:00:00 (CEST)Ulm-Maehringen, Allemagne (10840): Vitesse du vent & gusts: 18.04.2018 10:00:00 - 24.04.2018 10:00:00 (CEST)Ulm-Maehringen, Allemagne (10840): Direction du vent: 18.04.2018 10:00:00 - 24.04.2018 10:00:00 (CEST)Ulm-Maehringen, Allemagne (10840): reduced air pressure: 18.04.2018 10:00:00 - 24.04.2018 10:00:00 (CEST)Ulm-Maehringen, Allemagne (10840): visibility: 18.04.2018 10:00:00 - 24.04.2018 10:00:00 (CEST)Ulm-Maehringen, Allemagne (10840): Ensoleillement: 18.04.2018 10:00:00 - 24.04.2018 10:00:00 (CEST)Ulm-Maehringen, Allemagne (10840): Quantités de précipitations: 18.04.2018 10:00:00 - 24.04.2018 10:00:00 (CEST)
Date & Time tt [°C] td [°C] tt 5cm [°C] tt -5cm [°C] tt -20cm [°C] tt -100cm [°C] ff [km/h] ff [knt] fx [km/h] fx [knt] dd ppp [hPa] vv [km] sd [min] rr [mm]
24.04.2018 10:00:00 14,1 11,0 16,4 16,2 12,8 9,6 13 7 20 11 S 1019,7 22 60 0,0
24.04.2018 09:00:00 12,0 10,2 12,9 13,3 12,9 9,6 10 5 16 9 SSW 1020,4 15 44 0,0
24.04.2018 08:00:00 10,1 9,7 10,5 10,6 13,1 9,6 9 5 13 7 SSW 1020,6 4,7 32 0,0
24.04.2018 07:00:00 9,4 9,0 7,5 9,6 13,3 9,6 6 3 10 6 SW 1020,5 12 0 0,0
24.04.2018 06:00:00 9,9 9,4 8,1 10,1 13,6 9,6 6 3 18 10 SW 1020,4 14 0 0,0
24.04.2018 05:00:00 9,9 9,3 7,8 10,4 13,8 9,6 8 4 12 7 SW 1020,5 14 0 0,0
24.04.2018 04:00:00 10,8 10,0 9,8 11,2 14,0 9,5 9 5 15 8 WSW 1020,2 15 0 0,0
24.04.2018 03:00:00 10,6 9,9 9,8 11,1 14,3 9,5 7 4 11 6 WSW 1020,1 19 0 0,0
24.04.2018 02:00:00 11,0 9,9 9,6 11,6 14,5 9,5 7 4 14 7 SW 1019,8 33 0 0,0
24.04.2018 01:00:00 12,0 10,3 10,6 12,6 14,7 9,5 11 6 18 10 SW 1019,5 47 0 0,0
24.04.2018 00:00:00 12,3 10,6 11,7 13,0 14,9 9,5 13 7 22 12 SSW 1019,2 45 0 0,0
23.04.2018 23:00:00 12,4 10,6 11,8 13,2 15,2 9,5 10 5 17 9 SW 1019,0 47 0 0,0
23.04.2018 22:00:00 12,4 11,0 11,9 13,7 15,4 9,5 13 7 19 10 S 1018,7 40 0 0,1
23.04.2018 21:00:00 13,1 10,3 12,1 14,1 15,6 9,5 10 5 32 17 W 1017,8 55 0 0,0
23.04.2018 20:00:00 13,6 10,5 13,2 14,8 15,8 9,4 9 5 27 14 W 1017,6 54 3 0,0
23.04.2018 19:00:00 14,4 10,7 14,3 16,1 15,9 9,4 16 8 29 15 W 1016,4 70 4 0,0
23.04.2018 18:00:00 14,1 10,6 14,0 16,1 16,1 9,4 12 7 26 14 W 1016,2 67 0 0,8
23.04.2018 17:00:00 13,5 11,7 13,2 16,8 16,1 9,4 11 6 24 13 WNW 1017,1 14 0 1,6
23.04.2018 16:00:00 14,2 11,4 13,0 17,9 16,0 9,4 10 5 35 19 WSW 1017,6 12 0 0,7
23.04.2018 15:00:00 17,5 8,6 18,0 20,2 15,8 9,4 16 9 39 21 WNW 1016,5 70 9 0,0
23.04.2018 14:00:00 18,9 8,9 20,7 21,5 15,4 9,4 16 9 35 19 W 1015,8 51 23 0,0
23.04.2018 13:00:00 18,9 11,0 20,1 21,1 15,1 9,3 22 12 36 19 NNW 1015,8 29 28 0,0
23.04.2018 12:00:00 18,8 9,4 19,0 20,3 14,7 9,3 20 11 33 18 NW 1015,8 47 17 0,0
23.04.2018 11:00:00 20,0 9,8 22,4 19,9 14,5 9,3 10 5 19 11 WSW 1015,2 58 30 0,0
23.04.2018 10:00:00 18,5 8,1 20,4 18,1 14,4 9,3 10 6 18 10 WSW 1015,4 65 59 0,0
23.04.2018 09:00:00 16,2 7,1 16,8 14,8 14,5 9,3 10 5 15 8 SW 1015,8 70 40 0,0
23.04.2018 08:00:00 14,9 8,3 14,9 13,6 14,6 9,3 6 4 13 7 SSW 1015,9 59 16 0,0
23.04.2018 07:00:00 14,0 7,5 12,3 12,9 14,8 9,3 7 4 15 8 SW 1016,0 61 0 0,0
23.04.2018 06:00:00 13,3 7,8 11,4 13,2 15,0 9,2 8 4 20 11 S 1015,9 56 0 0,0
23.04.2018 05:00:00 14,3 7,7 12,5 13,3 15,2 9,2 9 5 17 9 SW 1016,0 64 0 0,0
23.04.2018 04:00:00 14,6 7,7 12,9 13,3 15,5 9,2 11 6 18 10 SW 1015,8 57 0 0,0
23.04.2018 03:00:00 11,3 8,3 10,6 13,2 15,8 9,2 5 3 11 6 SW 1016,5 44 0 0,0
23.04.2018 02:00:00 11,6 8,2 8,0 13,3 16,1 9,2 5 3 8 5 SW 1016,4 45 0 0,0
23.04.2018 01:00:00 12,8 7,9 8,1 13,7 16,5 9,2 4 2 8 5 WSW 1016,1 49 0 0,0
23.04.2018 00:00:00 14,1 8,5 8,4 14,3 16,8 9,1 5 3 10 6 W 1015,5 55 0 0,0
22.04.2018 23:00:00 12,7 9,2 9,5 15,1 17,2 9,1 7 4 9 5 WNW 1015,6 47 0 0,0
22.04.2018 22:00:00 14,2 9,8 9,7 16,2 17,5 9,1 6 4 10 5 W 1014,9 60 0 0,0
22.04.2018 21:00:00 16,4 9,8 11,2 17,6 17,6 9,1 5 3 8 5 WSW 1013,9 70 0 0,0
22.04.2018 20:00:00 20,0 9,5 16,1 19,4 17,7 9,1 7 4 9 5 SW 1012,7 70 45 0,0
22.04.2018 19:00:00 22,1 9,6 23,3 20,4 17,8 9,1 4 2 24 13 WSW 1012,2 70 25 0,0
22.04.2018 18:00:00 20,5 8,6 20,0 20,6 17,8 9,1 19 10 32 17 WSW 1013,0 64 0 0,0
22.04.2018 17:00:00 21,8 7,9 20,1 22,8 17,5 9,0 17 9 31 17 WSW 1012,7 50 1 0,0
22.04.2018 16:00:00 22,6 10,3 20,1 25,0 17,0 9,0 8 5 29 15 NW 1012,7 64 22 0,3
22.04.2018 15:00:00 24,8 6,9 29,2 26,9 16,3 9,0 10 5 29 16 SSW 1012,7 60 41 0,0
22.04.2018 14:00:00 24,1 8,8 27,4 27,3 15,6 9,0 10 6 31 17 W 1013,3 70 55 0,0
22.04.2018 13:00:00 23,7 9,5 27,8 26,0 15,0 9,0 16 8 27 14 SSW 1013,9 29 60 0,0
22.04.2018 12:00:00 21,9 10,0 25,5 23,6 14,5 9,0 18 10 26 14 SSW 1014,7 34 60 0,0
22.04.2018 11:00:00 20,1 8,2 23,0 21,1 14,1 9,0 15 8 22 12 SW 1015,2 35 60 0,0
22.04.2018 10:00:00 17,8 7,8 20,2 18,1 14,1 8,9 13 7 18 10 SSW 1015,9 27 60 0,0
22.04.2018 09:00:00 15,6 8,5 17,1 15,0 14,2 8,9 5 3 9 5 SSW 1016,4 22 60 0,0
22.04.2018 08:00:00 11,6 7,7 10,9 11,9 14,5 8,9 3 1 5 3 SSW 1017,5 15 60 0,0
22.04.2018 07:00:00 8,5 6,8 6,0 10,8 14,8 8,9 3 1 5 3 W 1018,2 16 3 0,0
22.04.2018 06:00:00 8,2 6,7 4,7 11,3 15,2 8,9 3 2 6 4 W 1018,3 16 0 0,0
22.04.2018 05:00:00 9,1 7,3 5,7 11,9 15,6 8,9 5 3 7 4 W 1018,4 21 0 0,0
22.04.2018 04:00:00 9,2 7,2 6,4 12,5 15,9 8,8 4 2 7 4 W 1018,6 25 0 0,0
22.04.2018 03:00:00 9,2 6,9 6,9 13,1 16,3 8,8 5 3 6 3 W 1018,9 23 0 0,0
22.04.2018 02:00:00 10,3 7,2 7,9 13,8 16,7 8,8 5 3 6 4 W 1019,1 32 0 0,0
22.04.2018 01:00:00 11,6 7,6 8,0 14,6 17,1 8,8 4 2 6 3 W 1019,0 40 0 0,0
22.04.2018 00:00:00 12,5 7,9 8,3 15,5 17,5 8,8 3 2 6 3 W 1018,8 42 0 0,0
21.04.2018 23:00:00 13,8 8,0 9,5 16,6 17,8 8,8 5 3 6 3 WNW 1018,5 38 0 0,0
21.04.2018 22:00:00 15,6 8,0 11,4 17,8 18,1 8,8 3 2 12 6 NW 1018,0 38 0 0,0
21.04.2018 21:00:00 17,2 7,8 13,7 19,4 18,3 8,7 10 5 14 8 N 1017,3 45 0 0,0
21.04.2018 20:00:00 20,7 8,5 18,0 21,6 18,2 8,7 8 4 16 8 NNW 1016,2 43 48 0,0
21.04.2018 19:00:00 23,2 8,2 23,1 23,8 18,0 8,7 9 5 15 8 NNW 1015,8 55 59 0,0
21.04.2018 18:00:00 24,0 7,8 25,8 25,6 17,6 8,7 9 5 19 10 N 1015,8 47 54 0,0
21.04.2018 17:00:00 24,4 8,3 27,9 27,3 17,1 8,7 8 4 20 11 NW 1016,2 51 60 0,0
21.04.2018 16:00:00 24,5 8,1 28,5 27,0 16,5 8,7 8 4 19 10 NNW 1016,7 50 46 0,0
21.04.2018 15:00:00 23,7 7,3 25,9 27,2 15,9 8,7 15 8 21 12 NNE 1017,5 57 41 0,0
21.04.2018 14:00:00 24,0 7,0 30,0 26,3 15,2 8,7 6 3 19 11 NNE 1017,7 40 40 0,0
21.04.2018 13:00:00 23,5 7,0 28,7 27,0 14,4 8,6 10 5 22 12 N 1018,1 34 60 0,0
21.04.2018 12:00:00 22,9 7,8 26,5 24,8 13,8 8,6 14 8 20 11 N 1018,9 33 60 0,0
21.04.2018 11:00:00 22,0 7,3 25,0 22,2 13,4 8,6 7 4 14 7 NNW 1019,2 27 60 0,0
21.04.2018 10:00:00 19,8 10,2 22,2 18,2 13,3 8,6 6 3 10 5 SSW 1019,3 31 60 0,0
21.04.2018 09:00:00 16,0 8,8 17,0 14,6 13,4 8,6 2 1 4 2 WSW 1020,3 32 60 0,0
21.04.2018 08:00:00 13,0 7,7 11,4 11,3 13,7 8,6 3 2 8 4 WSW 1020,8 30 60 0,0
21.04.2018 07:00:00 7,8 6,2 5,2 10,0 14,1 8,6 5 3 8 4 W 1022,1 18 2 0,0
21.04.2018 06:00:00 7,6 6,3 4,2 10,4 14,4 8,5 5 3 9 5 W 1022,0 15 0 0,0
21.04.2018 05:00:00 9,0 7,2 4,7 11,0 14,8 8,5 3 1 7 4 W 1021,5 20 0 0,0
21.04.2018 04:00:00 9,0 7,2 5,4 11,6 15,2 8,5 5 3 10 6 W 1021,7 19 0 0,0
21.04.2018 03:00:00 9,9 7,6 6,2 12,2 15,6 8,5 4 2 7 4 W 1021,7 20 0 0,0
21.04.2018 02:00:00 10,5 7,7 7,2 13,0 16,0 8,5 4 2 10 5 WNW 1022,0 21 0 0,0
21.04.2018 01:00:00 10,2 7,9 6,7 13,8 16,4 8,5 5 3 7 4 W 1022,5 28 0 0,0
21.04.2018 00:00:00 11,6 8,1 8,5 14,7 16,8 8,5 5 3 7 4 W 1022,2 30 0 0,0
20.04.2018 23:00:00 13,4 8,9 8,9 15,8 17,1 8,5 4 2 5 3 W 1022,0 31 0 0,0
20.04.2018 22:00:00 15,5 9,4 10,0 17,0 17,4 8,5 3 2 5 3 WNW 1021,7 34 0 0,0
20.04.2018 21:00:00 18,8 9,5 11,5 18,7 17,5 8,4 0 0 7 4 N 1020,7 44 0 0,0
20.04.2018 20:00:00 21,1 8,5 16,5 20,9 17,5 8,4 6 4 11 6 ENE 1019,9 48 57 0,0
20.04.2018 19:00:00 23,2 9,2 24,5 23,3 17,2 8,4 9 5 12 7 ENE 1019,6 52 60 0,0
20.04.2018 18:00:00 24,0 6,0 27,7 25,5 16,8 8,4 4 2 14 7 E 1019,8 50 60 0,0
20.04.2018 17:00:00 23,8 5,7 28,8 27,1 16,1 8,4 5 3 17 9 NNE 1020,3 49 60 0,0
20.04.2018 16:00:00 23,1 6,5 29,5 27,7 15,4 8,4 9 5 16 9 ENE 1021,0 46 60 0,0
20.04.2018 15:00:00 22,3 8,7 27,0 27,9 14,5 8,4 9 5 23 12 SE 1021,8 38 60 0,0
20.04.2018 14:00:00 21,6 8,5 28,2 27,3 13,6 8,4 6 3 17 9 E 1022,2 34 60 0,0
20.04.2018 13:00:00 20,7 8,4 27,7 25,7 12,9 8,4 6 4 15 8 SE 1022,8 30 60 0,0
20.04.2018 12:00:00 19,5 9,1 25,1 23,4 12,2 8,3 5 3 12 7 E 1023,3 34 60 0,0
20.04.2018 11:00:00 17,1 7,7 23,5 19,9 11,9 8,3 6 4 10 5 NE 1024,1 34 60 0,0
20.04.2018 10:00:00 15,3 7,5 19,4 16,0 11,8 8,3 5 3 14 8 E 1024,3 38 60 0,0
20.04.2018 09:00:00 13,7 7,4 15,5 12,3 11,9 8,3 9 5 14 7 ENE 1024,7 32 60 0,0
20.04.2018 08:00:00 10,0 5,6 9,5 9,2 12,2 8,3 4 2 13 7 N 1025,7 31 60 0,0
20.04.2018 07:00:00 8,1 4,9 3,5 7,9 12,5 8,3 6 3 9 5 N 1026,1 33 3 0,0
20.04.2018 06:00:00 7,8 4,5 2,7 8,3 12,9 8,3 4 2 9 5 NW 1026,1 35 0 0,0
20.04.2018 05:00:00 8,7 5,0 2,5 8,8 13,3 8,3 4 2 5 3 N 1026,0 48 0 0,0
20.04.2018 04:00:00 8,9 4,7 3,0 9,4 13,7 8,2 4 2 9 5 NW 1026,4 47 0 0,0
20.04.2018 03:00:00 10,3 4,8 4,7 10,0 14,1 8,2 9 5 9 5 NNE 1026,5 46 0 0,0
20.04.2018 02:00:00 10,4 4,7 4,0 10,7 14,5 8,2 6 3 8 5 NNW 1026,9 44 0 0,0
20.04.2018 01:00:00 11,1 4,8 4,2 11,4 14,9 8,2 6 4 9 5 N 1027,0 44 0 0,0
20.04.2018 00:00:00 11,1 4,7 4,7 12,3 15,3 8,2 4 2 6 3 NW 1027,3 45 0 0,0
19.04.2018 23:00:00 11,9 5,0 5,7 13,4 15,7 8,2 4 2 8 4 WNW 1027,5 40 0 0,0
19.04.2018 22:00:00 13,7 5,3 7,0 14,7 15,9 8,2 6 3 10 5 NE 1027,1 40 0 0,0
19.04.2018 21:00:00 16,0 6,0 9,5 16,5 16,1 8,2 5 3 16 9 ENE 1026,2 39 0 0,0
19.04.2018 20:00:00 18,5 6,6 15,2 18,6 16,1 8,2 12 7 23 12 ENE 1025,4 41 56 0,0
19.04.2018 19:00:00 21,3 6,7 21,5 20,4 15,9 8,2 18 10 29 16 ENE 1024,7 37 60 0,0
19.04.2018 18:00:00 22,5 6,3 24,3 22,3 15,6 8,1 20 11 31 17 ENE 1024,7 32 60 0,0
19.04.2018 17:00:00 23,0 7,0 26,2 23,8 15,0 8,1 22 12 32 17 ENE 1024,6 26 60 0,0
19.04.2018 16:00:00 23,1 7,0 27,2 24,7 14,4 8,1 17 9 30 16 E 1025,1 31 60 0,0
19.04.2018 15:00:00 22,1 6,6 27,1 25,1 13,7 8,1 18 10 29 16 E 1025,9 33 60 0,0
19.04.2018 14:00:00 21,6 7,7 27,7 24,6 12,9 8,1 13 7 30 16 E 1026,5 30 60 0,0
19.04.2018 13:00:00 20,4 6,0 24,8 22,9 12,3 8,1 21 12 30 16 E 1027,1 27 60 0,0
19.04.2018 12:00:00 19,4 6,6 23,1 21,0 11,8 8,1 18 10 29 15 E 1027,6 36 60 0,0
19.04.2018 11:00:00 17,3 6,1 20,1 18,5 11,5 8,1 15 8 29 16 ESE 1028,3 29 60 0,0
19.04.2018 10:00:00 15,2 6,2 17,8 15,0 11,4 8,1 16 9 28 15 E 1028,7 21 60 0,0
19.04.2018 09:00:00 13,7 6,4 14,7 12,0 11,5 8,0 11 6 21 11 E 1028,9 25 60 0,0
19.04.2018 08:00:00 11,7 6,2 11,0 9,4 11,7 8,0 15 8 23 13 E 1029,4 18 54 0,0
19.04.2018 07:00:00 10,2 6,0 7,7 8,5 12,0 8,0 15 8 21 12 ENE 1029,6 15 9 0,0
19.04.2018 06:00:00 10,1 5,6 6,7 8,8 12,3 8,0 13 7 20 11 ENE 1029,4 17 0 0,0
19.04.2018 05:00:00 11,6 6,0 8,3 9,4 12,6 8,0 16 8 25 13 ENE 1029,1 21 0 0,0
19.04.2018 04:00:00 11,3 5,5 8,3 9,5 12,9 8,0 13 7 18 10 E 1029,5 22 0 0,0
19.04.2018 03:00:00 10,6 5,7 6,0 9,8 13,3 8,0 10 5 16 8 ENE 1030,1 20 0 0,0
19.04.2018 02:00:00 11,8 5,9 7,8 10,5 13,6 8,0 9 5 12 6 E 1030,3 22 0 0,0
19.04.2018 01:00:00 12,0 5,9 8,4 11,2 14,0 8,0 10 5 16 9 E 1030,5 23 0 0,0
19.04.2018 00:00:00 12,1 5,7 5,7 11,8 14,3 8,0 7 4 11 6 ENE 1030,5 22 0 0,0
18.04.2018 23:00:00 13,0 6,0 7,4 13,0 14,6 7,9 7 4 19 11 ENE 1030,4 24 0 0,0
18.04.2018 22:00:00 14,1 6,7 10,9 14,1 14,8 7,9 15 8 20 11 ENE 1030,2 22 0 0,0
18.04.2018 21:00:00 15,2 6,1 12,4 15,3 15,0 7,9 16 8 26 14 ENE 1029,7 28 3 0,0
18.04.2018 20:00:00 17,6 6,2 15,4 17,0 15,0 7,9 16 9 31 17 ENE 1029,0 33 60 0,0
18.04.2018 19:00:00 19,8 5,7 20,3 18,7 14,8 7,9 21 11 39 21 ENE 1028,5 26 60 0,0
18.04.2018 18:00:00 20,7 6,1 22,7 20,5 14,5 7,9 23 12 36 19 ENE 1028,5 22 60 0,0
18.04.2018 17:00:00 21,0 7,0 24,0 21,7 14,1 7,9 27 14 37 20 ENE 1028,8 19 60 0,0
18.04.2018 16:00:00 20,5 7,1 24,4 22,6 13,5 7,9 25 14 40 21 E 1029,0 18 60 0,0
18.04.2018 15:00:00 20,0 5,6 24,8 23,0 12,8 7,9 27 15 42 23 ENE 1029,6 25 60 0,0
18.04.2018 14:00:00 19,7 7,3 25,0 22,9 12,2 7,9 23 12 37 20 ENE 1029,6 17 60 0,0
18.04.2018 13:00:00 19,3 9,3 24,8 21,9 11,5 7,9 19 10 35 19 E 1030,0 19 60 0,0
18.04.2018 12:00:00 17,6 7,8 21,7 20,0 11,0 7,8 21 12 34 18 E 1030,6 24 60 0,0
18.04.2018 11:00:00 16,9 8,1 20,8 17,8 10,7 7,8 13 7 21 11 E 1030,8 23 60 0,0
18.04.2018 10:00:00 14,6 7,3 18,3 14,7 10,6 7,8 11 6 16 8 ENE 1031,3 17 59 0,0

tt = Température de l'air
td = dewpoint
tt 5cm = Température de l'air 5cm
tt -5cm = Température de l'air -5cm
tt -20cm = Température de l'air -20cm
tt -100cm = Température de l'air -100cm
ff = Vitesse du vent
fx = gusts
dd = Direction du vent
ppp = reduced air pressure
vv = visibility
sd = Ensoleillement
rr = Quantités de précipitations

stations d'obs. à proximité